Regional Weather Roundup
Issued by NWS

Home | Current Version | Previous Version | Graphics & Text | Print | Product List | Glossary On
Versions: 1 2 3 4 5 6 7 8 9 10 11 12 13 14 15 16 17 18 19 20 21 22 23 24 25 26 27 28 29 30 31 32 33 34 35 36 37 38 39 40 41 42 43 44 45 46 47 48 49 50
000
ASUS45 KSLC 281510
RWRUT

UTAH REGIONAL WEATHER ROUNDUP
NATIONAL WEATHER SERVICE SALT LAKE CITY UT
800 AM MST SUN DEC 28 2014

UTZ001>011-023>025-281600-

NORTHERN UTAH

CITY           SKY/WX    TMP DP  RH WIND       PRES   REMARKS
BRIGHAM CITY   CLOUDY    28  21  74 CALM      30.06F
HILL AFB       CLOUDY    25  19  78 S10       30.05F WCI  14
LOGAN          CLOUDY    28  20  71 S14       30.02F WCI  17
OGDEN          CLOUDY    26  18  71 SE10      30.06F WCI  16
PROVO AIRPORT  CLOUDY    23  16  74 CALM      30.11F
SALT LAKE CITY CLOUDY    27  17  66 SE8       30.08F WCI  19
VERNAL         MOCLDY    12   8  84 SW3       30.10F
WENDOVER       PTCLDY    19  10  68 NE5       30.06S WCI  13
HEBER CITY     FLURRIES  18  14  86 CALM      30.07F
WEST JORDAN    CLOUDY    27  18  69 S10       30.09S WCI  17

$$

UTZ012>022-026-027-281600-

SOUTHERN/CENTRAL UTAH

CITY           SKY/WX    TMP DP  RH WIND       PRES   REMARKS
BLANDING       PTCLDY    15  10  80 CALM      30.25S
BRYCE CANYON   PTCLDY     3  -2  79 W6        30.09F WCI  -8
CEDAR CITY     PTCLDY    18   9  68 SW7       30.12F WCI   9
DELTA          CLOUDY    21  17  83 CALM      30.12F
MILFORD        CLOUDY    20  10  65 SW16      30.14R WCI   6
MOAB/CYNLANDS  MOCLDY    14  10  84 CALM      30.17S
PRICE          PTCLDY    15   5  64 CALM      30.11S
ST GEORGE      MOSUNNY   21   5  49 S5        30.29F WCI  15
KANAB          CLEAR     16  10  79 CALM      30.25S

$$

REGIONAL REPORTS     COLORADO/ARIZONA

CITY           SKY/WX    TMP DP  RH WIND       PRES   REMARKS
CRAIG, CO      CLOUDY    15   8  73 E9        30.05S WCI   3
GRAND JUNCTION CLOUDY    19  11  70 SE8       30.17F WCI   9
RIFLE          LGT SNOW  14  10  84 S6        30.17F VSB 3/4 WCI   5
MONTROSE       CLOUDY    17  10  74 N6        30.18R WCI   9
CORTEZ         CLEAR     11   7  84 CALM      30.19R
PAGE, AZ       PTCLDY    25   9  50 S3        30.21S
GRAND CANYON   PTCLDY     8   4  83 CALM      30.19R
KINGMAN        PTCLDY    21  13  71 S3        30.23F
FLAGSTAFF      PTCLDY    14   8  77 SW6       30.18R WCI   5

$$

REGIONAL REPORTS    NEVADA/IDAHO/WYOMING

CITY           SKY/WX    TMP DP  RH WIND       PRES   REMARKS
LAS VEGAS, NV  MOCLDY    35  13  40 S7        30.23F WCI  29
ELY            CLOUDY    19  10  68 S7        30.14F WCI  10
ELKO           PTCLDY    26  17  68 S5        30.07F WCI  20
POCATELLO, ID  LGT SNOW  28  22  78 S17       29.96S WCI  16
BURLEY         MIX PCPN  29  26  89 W16G24    29.98S WCI  17
EVANSTON, WY   LGT SNOW  17  14  88 SW15      29.95R FOG     WCI   2
ROCK SPRINGS   MOCLDY    14  10  84 SE7       29.93S WCI   4

$$



USA.gov is the U.S. government's official web portal to all federal, state and local government web resources and services.